2022 RM
ephemeris date magn radius delta ra dec elong phase
Today4 Sep 202630.72.584 AU2.887 AU14h48m-13°05'62.7°20.3°
2022 RM - 2026-09-04
astro.vanbuitenen.nl


 
-1 year
-1 month
-1 day
Now
+1 day
+1 month
+1 year

The interactive orbit chart above shows the body's path through the solar system and its position at the given date. Green and blue lines are shown perpendicular to the ecliptic plane: Green if the path is above the ecliptic plane, blue if it is below. (Left-click and drag to rotate the view; Right-click and drag to move the view; Use scroll wheel to zoom in our out.)

The orbital elements of 2022 RM are:

            e (Eccentricity)                : 0.4956202
            a (Semimajor axis)              : 1.7881188
            i (Inclination)                 : 3.41750
            Ω (Longitude of ascending node) : 144.61233
            ω (Argument of perihelion)      : 264.14739
            M (Mean anomaly)                : 182.67139
            Epoch                           : 2026 Jun 09

            L (Longitude of perihelion)     : 228.74937
            B (Latitude of perihelion)      : -3.39967
            P (Orbital period in years)     : 2.39            
        

The light curve chart below shows the estimated development of the minor planet's magnitude.


The all-sky chart below shows the path of the minor planet over the same period as the light curve. The current position is marked yellow.





The following chart shows the path of the minor planet in the next few days. The field of view is optimized for (~10x50) binoculars and finderscopes.




Ephemerides:
Date       Time       RA (2000)    DEC (2000)    delta   radius  elong  phase   PA    magn
2026-09-04 00:00 UT   14 48 55.6   -13 05 21     2.887    2.584   62.7   20.3   106   30.7 
2026-09-04 03:38 UT   14 49 05.8   -13 06 15     2.888    2.584   62.6   20.3   106   30.7 
2026-09-05 00:00 UT   14 50 03.2   -13 11 20     2.897    2.582   62.0   20.2   105   30.7 
2026-09-06 00:00 UT   14 51 11.6   -13 17 20     2.908    2.580   61.3   20.0   105   30.7 
2026-09-07 00:00 UT   14 52 20.6   -13 23 22     2.918    2.578   60.7   19.9   105   30.7 
2026-09-08 00:00 UT   14 53 30.3   -13 29 24     2.928    2.576   60.0   19.8   105   30.7 
2026-09-09 00:00 UT   14 54 40.8   -13 35 26     2.938    2.574   59.3   19.7   105   30.7 
2026-09-10 00:00 UT   14 55 51.9   -13 41 30     2.948    2.572   58.7   19.5   105   30.7 
2026-09-11 00:00 UT   14 57 03.7   -13 47 33     2.958    2.570   58.0   19.4   105   30.7 
2026-09-12 00:00 UT   14 58 16.1   -13 53 38     2.968    2.568   57.3   19.3   105   30.7 
2026-09-13 00:00 UT   14 59 29.2   -13 59 42     2.977    2.566   56.7   19.1   104   30.7 
2026-09-14 00:00 UT   15 00 43.0   -14 05 47     2.987    2.564   56.0   19.0   104   30.7 
2026-09-15 00:00 UT   15 01 57.4   -14 11 52     2.996    2.562   55.4   18.8   104   30.7 
2026-09-16 00:00 UT   15 03 12.5   -14 17 57     3.005    2.559   54.7   18.7   104   30.7 
2026-09-17 00:00 UT   15 04 28.2   -14 24 02     3.015    2.557   54.0   18.6   104   30.7 
2026-09-18 00:00 UT   15 05 44.5   -14 30 07     3.024    2.555   53.4   18.4   104   30.7 
2026-09-19 00:00 UT   15 07 01.4   -14 36 12     3.033    2.553   52.7   18.3   104   30.7 
2026-09-20 00:00 UT   15 08 19.0   -14 42 17     3.041    2.551   52.1   18.1   104   30.7 
2026-09-21 00:00 UT   15 09 37.1   -14 48 21     3.050    2.548   51.5   18.0   103   30.7 
2026-09-22 00:00 UT   15 10 55.9   -14 54 25     3.058    2.546   50.8   17.8   103   30.7 
2026-09-23 00:00 UT   15 12 15.3   -15 00 29     3.067    2.544   50.2   17.6   103   30.7 
2026-09-24 00:00 UT   15 13 35.2   -15 06 32     3.075    2.541   49.5   17.5   103   30.7 
2026-09-25 00:00 UT   15 14 55.8   -15 12 35     3.083    2.539   48.9   17.3   103   30.7 
2026-09-26 00:00 UT   15 16 16.9   -15 18 37     3.091    2.536   48.3   17.2   103   30.7 
2026-09-27 00:00 UT   15 17 38.6   -15 24 38     3.099    2.534   47.6   17.0   103   30.7 
2026-09-28 00:00 UT   15 19 00.9   -15 30 38     3.107    2.532   47.0   16.8   102   30.7 
2026-09-29 00:00 UT   15 20 23.7   -15 36 38     3.115    2.529   46.4   16.7   102   30.7 
2026-09-30 00:00 UT   15 21 47.2   -15 42 37     3.122    2.527   45.7   16.5   102   30.7 


    Terminology:
            
    delta:  distance between minor planet and earth in AU
    radius: distance between minor planet and sun in AU
    magn:   magnitude (brightness) estimate    
    ra:     right ascension in hours (24h = 360deg)
    dec:    declination in degrees
    elong:  elongation in degrees (angle sun-earth-minor planet)    
    phase:  phase angle in degrees (angle sun-minor planet-earth)        
    AU:     Astronomical Unit (mean distance between earth and sun: 149597870.7 km
    

Orbital elements provided by the MPC (Minor Planet Center).
Calculations by a modified version of AAPlus, a C# implementation of the AA+ project by PJ Naughter from the algorithms presented in the book "Astronomical Algorithms" by Jean Meeus.
NGC2000 dso catalog and star labels from VizieR as provided by the Strasbourg astronomical Data Center.
Tycho2 catalog from the ESO archive.